Regional Weather Roundup
Issued by NWS Cleveland, OH

Home | Current Version | Previous Version | Text Only | Print | Product List | Glossary On
Versions: 1 2 3 4 5 6 7 8 9 10 11 12 13 14 15 16 17 18 19 20 21 22 23 24 25 26 27 28 29 30 31 32 33 34 35 36 37 38 39 40 41 42 43 44 45 46 47 48 49 50
000
ASUS41 KCLE 250912
RWRCLE
OHIO REGIONAL WEATHER ROUNDUP
NATIONAL WEATHER SERVICE WILMINGTON, OH
400 AM EST SAT FEB 25 2017

NOTE: "FAIR" INDICATES FEW OR NO CLOUDS BELOW 12,000 FEET WITH NO
SIGNIFICANT WEATHER AND/OR OBSTRUCTIONS TO VISIBILITY.

OHZ001>008-015>018-024>027-034-035-043-044-251000-
   NORTHWEST OHIO

CITY           SKY/WX    TMP DP  RH WIND       PRES   REMARKS
DEFIANCE       CLOUDY    41  34  76 SW9       29.56F
FINDLAY        FAIR      42  34  73 SW8       29.57S
TOLEDO EXPRESS FAIR      41  36  82 W15       29.54F
TOLEDO EXEC    FAIR      44  36  73 W12       29.55F
LIMA           MOCLDY    41  37  86 SW8       29.58F
$$

OHZ009>014-019>023-028>033-038-089-251000-
   NORTHEAST OHIO

CITY           SKY/WX    TMP DP  RH WIND       PRES   REMARKS
CLE-HOPKINS    MOCLDY    51  44  77 W17       29.56R
CLE-LAKEFRONT  MOCLDY    45  41  86 W17       29.53R
CUY CO. ARPT   NOT AVBL
LORAIN-ELYRIA  MOCLDY    48  40  73 W21G26    29.56R
ASHTABULA      CLOUDY    55  54  96 W10       29.52R
AKRON-CANTON   LGT RAIN  52  45  77 W6        29.55S
WOOSTER        CLOUDY    50  45  83 W18       29.55S
MANSFIELD      CLOUDY    43  37  79 W12G21    29.58R
YOUNGSTOWN     LGT RAIN  55  53  93 S8        29.53F
$$

OHZ042-051>053-060>062-070>072-077>081-251000-
  SOUTHWEST OHIO

CITY           SKY/WX    TMP DP  RH WIND       PRES   REMARKS
CINC-COVINGTON MOCLDY    44  34  67 NW10      29.66S
CINC-LUNKEN    CLOUDY    47  34  60 W13       29.68R
HAMILTON       FAIR      44  34  67 W9        29.67R
DAYTON         CLOUDY    42  34  73 W16       29.63S
WRIGHT-PAT AFB CLOUDY    45  40  83 W18       29.62F
DAYTON GENERAL MOCLDY    44  33  65 W15G23    29.63S
WILMINGTON     FAIR      46  37  71 W10       29.62S
$$

OHZ036-037-039>041-045>050-054>059-063>069-073>076-082>088-251000-
  CENTRAL AND SOUTHEAST OHIO

CITY           SKY/WX    TMP DP  RH WIND       PRES   REMARKS
COLUMBUS       CLOUDY    49  41  74 NW10      29.62R
OSU AIRPORT    FAIR      44  38  79 W12       29.61R
BOLTON FIELD   MOCLDY    45  39  79 NW9       29.62S
RICKENBACK AFB CLOUDY    47  42  81 NW10      29.62R
NEWARK         LGT RAIN  49  40  71 W13       29.59R
MARION         MOCLDY    43  36  76 W12       29.60S
LANCASTER      LGT RAIN  51  47  86 NW13      29.61S
ZANESVILLE     RAIN      52  48  86 S3        29.58R FOG
NEW PHILLY     LGT RAIN  54  51  90 NW8       29.55S
$$



USA.gov is the U.S. government's official web portal to all federal, state and local government web resources and services.